[[{"header":{"parameterUnit":"m.s-1","parameterCategory":1,"la1":30.2991,"la2":30.254,"lo1":-89.0895,"lo2":-89.0444,"dy":0.0017,"dx":0.0017,"nx":28,"ny":28,"refTime":"2024-06-09T21:00:00:Z","depth":0,"parameterNumber":2,"parameterNumberName":"U-component_of_WINDS"},"data":[0,0,0,0,0,0,0,0,0,0,0,0,0,0,0,0,0,0,0,0,0,0,0,0,0,0,0,0,0,0,0,0,0,0,0,0,0,0,0,0,0,0,0,0,0,0,0,0,0,0,0,0,0,0,0,0,0,0,-1.6416,-1.6415,0,-1.6372,-1.6372,-1.6371,-1.6265,-1.6263,-1.626,-1.6258,-1.6218,-1.6219,-1.622,0,0,0,0,0,0,0,0,0,0,0,0,0,-1.6412,-1.6413,-1.6416,-1.6415,-1.6415,-1.6372,-1.6372,-1.6371,-1.6265,-1.6263,-1.626,-1.6257,-1.6217,-1.6218,-1.622,0,0,0,0,0,0,0,0,0,0,0,0,0,-1.6396,-1.6413,-1.6416,-1.6357,-1.6351,-1.6372,-1.6372,-1.6371,-1.6266,-1.6262,-1.6259,-1.6256,-1.6217,-1.6218,-1.622,-1.6296,0,0,-1.6224,-1.6225,0,0,0,0,0,0,0,0,-1.6397,-1.6396,-1.6366,-1.6361,-1.6355,-1.632,-1.6355,-1.6346,-1.6267,-1.6298,-1.6258,-1.6254,-1.6255,-1.6253,-1.6252,-1.6294,-1.6292,-1.6225,-1.6225,-1.6226,-1.6227,0,0,0,0,0,0,0,-1.6398,-1.6397,-1.6399,-1.6366,-1.6359,-1.6334,-1.6328,-1.6353,-1.6296,-1.6295,-1.6288,-1.6284,-1.6251,-1.6251,-1.6251,-1.6292,-1.6224,-1.6226,-1.6227,-1.6227,-1.6396,-1.6399,0,0,0,0,0,0,-1.6407,-1.6399,-1.64,-1.6397,-1.6368,-1.6337,-1.633,-1.6335,-1.6295,-1.6286,-1.6286,-1.6279,-1.625,-1.6249,-1.6249,-1.6337,-1.6226,-1.6227,-1.6228,-1.6392,-1.6397,-1.6401,0,0,0,0,0,0,-1.6407,-1.6408,-1.6402,-1.6396,-1.6393,-1.634,-1.6347,-1.6336,-1.6336,-1.6289,-1.6278,-1.6297,-1.6247,-1.6247,-1.6285,-1.6334,-1.6228,-1.623,-1.6388,-1.6394,-1.6399,-1.6513,0,0,0,0,0,0,-1.6408,-1.6409,-1.6437,-1.6397,-1.6394,-1.6438,-1.635,-1.6337,-1.6338,-1.6328,-1.6296,-1.6287,-1.6245,-1.6284,-1.6287,-1.6334,-1.6231,-1.6384,-1.6391,-1.6397,-1.6505,-1.6522,-1.6537,0,0,0,0,0,-1.6408,-1.6471,-1.6438,-1.6439,-1.6427,-1.6441,-1.6439,-1.6388,-1.6342,-1.637,-1.634,-1.6288,-1.6328,-1.6288,-1.6291,-1.634,-1.638,-1.6389,-1.6396,-1.6498,-1.6519,-1.6536,0,0,0,0,0,0,-1.6519,-1.6465,-1.6428,-1.648,-1.6466,-1.6423,-1.6457,-1.6412,-1.6411,-1.6402,-1.6339,-1.6333,-1.6381,-1.6363,-1.6321,-1.6412,-1.6346,-1.6355,-1.6422,-1.6441,-1.6457,-1.6461,-1.6232,0,0,0,0,0,-1.6549,-1.6564,-1.6516,-1.6567,-1.6562,-1.6511,-1.6515,-1.6477,-1.646,-1.6454,-1.6426,-1.6414,-1.6423,-1.6431,-1.6437,-1.6501,-1.6494,-1.6536,-1.6552,-1.6565,-1.6574,-1.6609,-1.6628,-1.6427,-1.6427,-1.6427,0,0,-1.6613,-1.6585,-1.6598,-1.6589,-1.6573,-1.6592,-1.6507,-1.6529,-1.6543,-1.6458,-1.6493,-1.6472,-1.6454,-1.6506,-1.6528,-1.6493,-1.6628,-1.6575,-1.6586,-1.6588,-1.6619,-1.6638,-1.6655,-1.6432,-1.6431,-1.6431,0,0,-1.6738,-1.6717,-1.6758,-1.6744,-1.6721,-1.6687,-1.6697,-1.6661,-1.6644,-1.6677,-1.6614,-1.663,-1.6647,-1.6636,-1.6634,-1.6755,-1.6708,-1.6758,-1.6842,-1.6876,-1.6892,-1.6906,-1.6952,-1.6969,-1.6767,-1.6768,-1.6768,0,-1.682,-1.6844,-1.6785,-1.6812,-1.681,-1.6732,-1.6774,-1.6764,-1.6745,-1.6746,-1.6707,-1.6728,-1.6709,-1.6759,-1.6789,-1.6788,-1.68,-1.6763,-1.6894,-1.6908,-1.692,-1.6963,-1.698,-1.6774,-1.6773,-1.6773,-1.6772,0,-1.6947,-1.6964,-1.7,-1.6983,-1.6985,-1.7019,-1.6967,-1.6977,-1.6938,-1.6908,-1.6945,-1.692,-1.692,-1.6928,-1.6891,-1.6974,-1.6953,-1.6905,-1.6838,-1.6946,-1.6986,-1.7001,-1.6783,-1.6781,-1.6779,-1.6778,0,0,-1.7143,-1.7092,-1.7106,-1.7098,-1.7066,-1.708,-1.7111,-1.7109,-1.712,-1.7109,-1.7135,-1.7151,-1.7107,-1.7104,-1.7064,-1.7095,-1.7195,-1.7043,-1.7042,-1.7074,-1.7287,-1.7325,-1.7345,-1.7162,-1.7165,-1.7167,-1.7289,0,-1.7262,-1.7312,-1.726,-1.7321,-1.7337,-1.7263,-1.729,-1.7275,-1.7248,-1.7259,-1.723,-1.7243,-1.7182,-1.718,-1.7206,-1.7177,-1.7237,-1.7167,-1.7189,-1.719,-1.7198,-1.7365,-1.7405,-1.7522,-1.7304,-1.7307,-1.7308,0,-1.7408,-1.7404,-1.7466,-1.7431,-1.7436,-1.7462,-1.7457,-1.7468,-1.745,-1.7428,-1.7425,-1.7377,-1.7407,-1.7339,-1.738,-1.7334,-1.7339,-1.7326,-1.733,-1.7332,-1.7258,-1.7374,-1.7557,-1.7576,-1.7332,-1.733,-1.7328,0,-1.7548,-1.7557,-1.7596,-1.759,-1.755,-1.757,-1.7555,-1.7533,-1.7536,-1.7532,-1.7534,-1.7534,-1.7535,-1.7537,-1.7492,-1.7446,-1.754,-1.7468,-1.7525,-1.7527,-1.755,-1.755,-1.7739,-1.755,-1.7549,-1.7549,-1.7549,0,-1.7688,-1.773,-1.7658,-1.7682,-1.7727,-1.7667,-1.7714,-1.7691,-1.7672,-1.7692,-1.7627,-1.7648,-1.7584,-1.7599,-1.7563,-1.7604,-1.7604,-1.7589,-1.758,-1.7597,-1.7599,-1.7601,-1.7593,-1.7554,-1.7553,-1.7552,-1.7551,0,-1.7853,-1.7806,-1.7844,-1.7802,-1.7793,-1.7828,-1.7793,-1.7815,-1.7783,-1.7809,-1.7812,-1.7763,-1.7776,-1.773,-1.7735,-1.7711,-1.7773,-1.7749,-1.7779,-1.7773,-1.7834,-1.783,-1.8034,-1.8058,-1.7851,-1.7853,-1.7854,0,-1.7947,-1.7977,-1.7939,-1.7947,-1.7934,-1.7948,-1.795,-1.7892,-1.7898,-1.7879,-1.7904,-1.7911,-1.7915,-1.794,-1.7906,-1.791,-1.7888,-1.7958,-1.7888,-1.7904,-1.7892,-1.7892,-1.7896,-1.7974,-1.7977,-1.7979,-1.798,0,-1.8119,-1.8095,-1.81,-1.8098,-1.8102,-1.8098,-1.8089,-1.81,-1.8038,-1.8047,-1.8059,-1.8062,-1.8067,-1.8077,-1.8074,-1.8059,-1.8012,-1.8002,-1.8016,-1.8035,-1.8053,-1.8047,-1.7822,-1.7999,-1.7997,-1.7996,-1.7995,-1.7994,-1.8253,-1.8277,-1.8254,-1.8262,-1.8249,-1.8243,-1.8262,-1.8232,-1.824,-1.824,-1.8205,-1.8225,-1.8206,-1.8197,-1.8188,-1.8204,-1.8171,-1.819,-1.8196,-1.8202,-1.8214,-1.8048,-1.8202,-1.8202,-1.8201,-1.8201,-1.82,0,-1.8424,-1.8406,-1.8414,-1.8403,-1.8411,-1.8361,-1.8349,-1.836,-1.8377,-1.8363,-1.8367,-1.8382,-1.8391,-1.8357,-1.8362,-1.8381,-1.8359,-1.8384,-1.8384,-1.8382,-1.8242,-1.823,-1.8402,-1.8402,-1.8402,-1.8402,-1.8402,-1.8402,-1.8515,-1.8553,-1.8526,-1.8558,-1.8539,-1.8556,-1.8554,-1.8549,-1.8537,-1.8557,-1.8563,-1.854,-1.8519,-1.8521,-1.8528,-1.8518,-1.8524,-1.8558,-1.8541,-1.8411,-1.8391,-1.8373,-1.8362,-1.8559,-1.8559,-1.868,-1.8681,-1.8682]},{"header":{"parameterUnit":"m.s-1","parameterCategory":1,"la1":30.2991,"la2":30.254,"lo1":-89.0895,"lo2":-89.0444,"dy":0.0017,"dx":0.0017,"nx":28,"ny":28,"refTime":"2024-06-09T21:00:00:Z","depth":0,"parameterNumber":3,"parameterNumberName":"V-component_of_WINDS"},"data":[0,0,0,0,0,0,0,0,0,0,0,0,0,0,0,0,0,0,0,0,0,0,0,0,0,0,0,0,0,0,0,0,0,0,0,0,0,0,0,0,0,0,0,0,0,0,0,0,0,0,0,0,0,0,0,0,0,0,-1.0984,-1.0984,0,-1.1028,-1.1029,-1.1029,-1.1049,-1.1049,-1.1049,-1.1049,-1.1096,-1.1097,-1.1098,0,0,0,0,0,0,0,0,0,0,0,0,0,-1.0917,-1.0918,-1.0984,-1.0984,-1.0985,-1.1028,-1.1029,-1.103,-1.1049,-1.1049,-1.1049,-1.1049,-1.1095,-1.1097,-1.1098,0,0,0,0,0,0,0,0,0,0,0,0,0,-1.0952,-1.0919,-1.0984,-1.1,-1.1002,-1.1028,-1.1029,-1.103,-1.1049,-1.1049,-1.1049,-1.1049,-1.1095,-1.1097,-1.1099,-1.1112,0,0,-1.1105,-1.1105,0,0,0,0,0,0,0,0,-1.095,-1.0955,-1.0997,-1.0999,-1.1001,-1.1033,-1.1023,-1.1057,-1.1049,-1.1031,-1.1049,-1.1049,-1.1075,-1.1079,-1.1087,-1.1115,-1.1117,-1.1105,-1.1106,-1.1107,-1.1107,0,0,0,0,0,0,0,-1.0948,-1.0953,-1.1001,-1.0998,-1.1,-1.1006,-1.1011,-1.1029,-1.1053,-1.1033,-1.1035,-1.1039,-1.1076,-1.1085,-1.1089,-1.1117,-1.1105,-1.1106,-1.1108,-1.1108,-1.116,-1.116,0,0,0,0,0,0,-1.0943,-1.0951,-1.1,-1.1003,-1.0975,-1.1007,-1.1012,-1.1023,-1.1053,-1.1058,-1.104,-1.104,-1.1082,-1.1086,-1.109,-1.111,-1.1107,-1.1109,-1.111,-1.116,-1.116,-1.116,0,0,0,0,0,0,-1.0941,-1.0947,-1.0998,-1.0977,-1.0984,-1.1008,-1.102,-1.1024,-1.1033,-1.1058,-1.1062,-1.1044,-1.1082,-1.1087,-1.1107,-1.1112,-1.1109,-1.1111,-1.116,-1.116,-1.116,-1.1148,0,0,0,0,0,0,-1.0939,-1.0946,-1.0951,-1.0977,-1.0985,-1.1014,-1.102,-1.1025,-1.1036,-1.1038,-1.1064,-1.1068,-1.1083,-1.1104,-1.1109,-1.1114,-1.1113,-1.1159,-1.116,-1.116,-1.1148,-1.1147,-1.1147,0,0,0,0,0,-1.0937,-1.0945,-1.0951,-1.0957,-1.0992,-1.1014,-1.1019,-1.1035,-1.1036,-1.1042,-1.1058,-1.1067,-1.111,-1.1106,-1.1112,-1.1117,-1.1159,-1.116,-1.116,-1.1148,-1.1148,-1.1147,0,0,0,0,0,0,-1.0919,-1.0949,-1.0956,-1.0973,-1.0991,-1.1017,-1.1025,-1.1034,-1.1051,-1.1052,-1.1072,-1.1077,-1.1096,-1.1108,-1.1103,-1.1133,-1.1136,-1.1137,-1.1124,-1.1124,-1.1124,-1.1121,-1.1114,0,0,0,0,0,-1.0917,-1.0932,-1.0958,-1.0971,-1.0979,-1.1,-1.101,-1.1022,-1.1041,-1.1048,-1.1066,-1.1085,-1.1103,-1.1114,-1.1132,-1.115,-1.1157,-1.1157,-1.1156,-1.1156,-1.1157,-1.117,-1.117,-1.1162,-1.1162,-1.1162,0,0,-1.0913,-1.0932,-1.094,-1.0968,-1.0983,-1.0998,-1.1006,-1.1022,-1.1035,-1.1051,-1.1071,-1.1085,-1.1107,-1.1126,-1.1136,-1.1137,-1.1161,-1.1157,-1.1156,-1.1158,-1.117,-1.1171,-1.1172,-1.1162,-1.1162,-1.1162,0,0,-1.0915,-1.0929,-1.0943,-1.0958,-1.0981,-1.0995,-1.0998,-1.1024,-1.1033,-1.1054,-1.1067,-1.1082,-1.1112,-1.1128,-1.114,-1.1149,-1.1158,-1.1154,-1.1153,-1.1164,-1.1165,-1.1166,-1.117,-1.1172,-1.1155,-1.1155,-1.1155,0,-1.0907,-1.0931,-1.0948,-1.0964,-1.0977,-1.0992,-1.1007,-1.102,-1.1048,-1.1057,-1.1058,-1.1097,-1.1113,-1.1137,-1.114,-1.1148,-1.1154,-1.1151,-1.1163,-1.1164,-1.1165,-1.117,-1.1171,-1.1155,-1.1155,-1.1155,-1.1155,0,-1.0921,-1.0938,-1.0946,-1.0973,-1.0986,-1.1001,-1.1021,-1.1033,-1.1043,-1.1058,-1.1079,-1.1099,-1.1122,-1.1128,-1.1138,-1.1154,-1.1155,-1.1159,-1.1162,-1.1165,-1.117,-1.1172,-1.1154,-1.1154,-1.1154,-1.1154,0,0,-1.0912,-1.0949,-1.0952,-1.0965,-1.0992,-1.1006,-1.1022,-1.1044,-1.1054,-1.1073,-1.1088,-1.1114,-1.1119,-1.1133,-1.1145,-1.1155,-1.1163,-1.1159,-1.116,-1.116,-1.1183,-1.118,-1.1182,-1.1169,-1.1169,-1.117,-1.1182,0,-1.0918,-1.0948,-1.0964,-1.0987,-1.1004,-1.102,-1.1034,-1.1053,-1.1067,-1.1084,-1.11,-1.1118,-1.1123,-1.1131,-1.1142,-1.1159,-1.1168,-1.1159,-1.1184,-1.1185,-1.1179,-1.1184,-1.118,-1.1191,-1.1184,-1.1184,-1.1184,0,-1.0929,-1.0948,-1.0973,-1.0999,-1.1007,-1.102,-1.1043,-1.1058,-1.108,-1.109,-1.1105,-1.1118,-1.1137,-1.1138,-1.1165,-1.1158,-1.117,-1.118,-1.1181,-1.1184,-1.1185,-1.1189,-1.1195,-1.1197,-1.1187,-1.1187,-1.1187,0,-1.0921,-1.0953,-1.0972,-1.0983,-1.1014,-1.1023,-1.1037,-1.1059,-1.1072,-1.1092,-1.1101,-1.1122,-1.1135,-1.1152,-1.117,-1.1169,-1.1196,-1.1198,-1.1206,-1.1205,-1.1211,-1.121,-1.122,-1.1217,-1.1217,-1.1217,-1.1217,0,-1.0926,-1.0941,-1.097,-1.0982,-1.0999,-1.1019,-1.1036,-1.1051,-1.1071,-1.1086,-1.1101,-1.1116,-1.1139,-1.1157,-1.1171,-1.1192,-1.1197,-1.1207,-1.1211,-1.1206,-1.1205,-1.1214,-1.1214,-1.1217,-1.1217,-1.1217,-1.1217,0,-1.0921,-1.094,-1.0963,-1.0991,-1.0999,-1.1011,-1.1035,-1.1048,-1.1064,-1.1084,-1.1089,-1.1114,-1.1136,-1.1156,-1.1185,-1.1195,-1.1216,-1.1221,-1.1209,-1.1211,-1.1218,-1.1218,-1.1234,-1.1238,-1.1231,-1.1231,-1.1231,0,-1.0923,-1.0935,-1.0965,-1.0977,-1.0991,-1.1009,-1.1023,-1.1043,-1.1057,-1.1084,-1.1094,-1.1117,-1.1136,-1.1171,-1.1192,-1.1214,-1.122,-1.1224,-1.1223,-1.1219,-1.1222,-1.1221,-1.1223,-1.1224,-1.1224,-1.1224,-1.1224,0,-1.0926,-1.0936,-1.0955,-1.0978,-1.0994,-1.1013,-1.1032,-1.1041,-1.1065,-1.108,-1.1103,-1.1118,-1.1148,-1.1172,-1.1197,-1.1212,-1.1222,-1.1224,-1.1228,-1.1223,-1.1217,-1.1222,-1.121,-1.1224,-1.1224,-1.1224,-1.1224,-1.1224,-1.0925,-1.0937,-1.0961,-1.0982,-1.0999,-1.1018,-1.1032,-1.1049,-1.1069,-1.1095,-1.1106,-1.1129,-1.1153,-1.1188,-1.1203,-1.1222,-1.1224,-1.1228,-1.123,-1.1231,-1.1231,-1.1213,-1.1227,-1.1227,-1.1227,-1.1227,-1.1227,0,-1.093,-1.0946,-1.0966,-1.0993,-1.101,-1.1019,-1.1042,-1.1055,-1.1076,-1.1097,-1.1116,-1.1143,-1.1166,-1.1189,-1.1214,-1.1225,-1.1231,-1.1231,-1.1231,-1.1234,-1.1226,-1.1222,-1.1226,-1.1226,-1.1226,-1.1226,-1.1226,-1.1226,-1.0934,-1.0956,-1.0969,-1.0999,-1.1016,-1.1039,-1.1051,-1.1069,-1.1086,-1.1115,-1.1135,-1.115,-1.1172,-1.1198,-1.122,-1.1227,-1.1235,-1.1234,-1.1242,-1.1235,-1.1235,-1.1234,-1.123,-1.1236,-1.1236,-1.1248,-1.1249,-1.1249]}]]